OBJECT A, 61614

Orbit data source: Space-Track

You're viewing an Uncataloged Satellite

Recently launched and/or uncataloged satellites may have evolving metadata. Metadata may include but not limited to: Owner, Maufacturer, Bus, Motor, and Mission.

OBJECT A, 61614 is a satellite owned by ZJUNI-SAT (CN) in SSO that was launched on Tue, 22 Oct 2024 UTC via a CHANG ZHENG 6 launch vehicle from the Taiyaun Space Center, China (TSC). Unknown objects in Earth's orbit typically refer to objects detected orbiting the Earth but have not yet been identified or cataloged. These objects could be anything from previously untracked satellites, spent rocket stages, debris from satellite collisions, or even natural meteoroids temporarily captured by Earth's gravity.

Loading next visibility...
Identifier
61614, 2024-189A
Orbit
SSO
Last TLE update
8 hours ago
Origin
Manufacturer
ZJUNI-SAT
Mission
Operational Defense Calibration
Bus & Motor
TP-3, Unknown motor
Mass
200 kg wet, ~200 kg dry
Launch date (UTC)
2024-10-22 (7 months ago)
Launch vehicle
CHANG ZHENG 6
Launch site
Taiyaun Space Center, China (TSC)
Object type
Unknown
Shape & HBR
Box, 0.6 m
Radar Cross Section
0.135 m², Large (>1 m²)

Expand to show TLE details & history

TLE from 8 hours ago
0 OBJECT A
1 61614U 24189A   25129.52784813  .00004006  00000-0  31923-3 0  9990
2 61614  97.5985 156.5409 0001389 106.2706 253.8671 15.00899353 29934
Epoch: 2025-05-09T12:40Z
Definitive object data (Epoch: 2025-05-09T12:40:06.078Z)
Latitude
-0.00003°
Longitude
98.93288°
Altitude
567.449 km
Speed
7.577 km/s
True Right ascension
10h 26m 09s
True Declination
0° 00' 00"
Sunlit
Object was in daylight at TLE epoch
Visualization TLE readout
Latitude
-13.63261°
Longitude
101.10023°
Altitude
570.394 km
Speed
7.575 km/s
Apparent Right ascension
13h 03m 00s
Apparent Declination
-35° 03' 54"
Sunlit
Object is in full shadow
Visualization observer readout
Local Sidereal Time
04:47:37
Azimuth
102.293° ESE
Elevation
-45.912°
Doppler factor
1
Orbital elements
Apogee altitude
562.085 km
Perigee altitude
560.157 km
Semi-major axis
6,939.258 km
Eccentricity
0.0001389
Inclination
97.5985°
RAAN
156.5409°
Arg. of periapsis
106.2706°
True anomaly
253.85181°
Mean anomaly
253.8671°
Eccentric anomaly
253.85946°
Mean motion
3.75469 °/min
BSTAR
0.00031923
Orbital period
95.88 mins
Loading maneuver chart data...
Loading SW <> Apogee altitude chart data...
Loading historical data...
Loading historical data...
Loading historical data...
Loading historical data...
Loading historical data...
Loading historical data...
Loading historical data...
Other satellites on launch #189 in the year 2024 (2024-10-22 UTC)

OBJECT A Visibility forecast

Observer location: undefined°, undefined°

Span
Click to sort rows by Start time (UTC) header in descending order
Start Az.
Max El. time (UTC)
Max El. Az.
Max El.
End time (UTC)
End Az.
7 mins2025-05-10 01:35:27.977Z155.605° SSE2025-05-10 01:39:27.977Z36.011° NE40.318°2025-05-10 01:42:27.977Z355.307° N
6 mins2025-05-10 14:50:27.977Z2.588° NNE2025-05-10 14:53:27.977Z259.638° W41.664°2025-05-10 14:56:27.977Z204.736° SW
|